Location: Unspecified
(0.0000°N, 0.0000°E)
Time: 17:29:22
(UTC+00:00)

ITAMSAT 1 - Pass Details

Date: 26 September 2021
Orbit: 783 x 797 km, 98.9° (Epoch: 22 October)

Event Time Altitude Azimuth Distance (km) Brightness Sun altitude
Rises 20:05:55 0° 208° (SSW) 3,290 11.2 -33.7°
Reaches altitude 10° 20:10:50 10° 249° (WSW) 2,353 10.8 -34.9°
Maximum altitude 20:11:28 10° 256° (WSW) 2,337 10.9 -35.1°
Drops below altitude 10° 20:12:07 10° 263° (W) 2,351 10.9 -35.2°
Sets 20:17:02 0° 305° (NW) 3,270 11.5 -36.5°
